Location: Arbon
(43.0005°N, 0.7472°E)
Time: 10:06:18
(UTC+00:00)

SR - Pass Details

Date: 28 November 2020
Orbit: 575 x 880 km, 66.7° (Epoch: 21 January)

Event Time Altitude Azimuth Distance (km) Brightness Sun altitude
Rises 18:38:54 0° 218° (SW) 2,791 ? -24.1°
Reaches altitude 10° 18:41:05 10° 222° (SW) 1,914 ? -24.5°
Maximum altitude 18:45:20 63° 304° (WNW) 687 ? -25.2°
Enters shadow 18:45:41 60° 331° (NNW) 706 ? -25.3°
Drops below altitude 10° 18:49:54 10° 26° (NNE) 2,056 - -26.1°
Sets 18:52:19 0° 29° (NNE) 3,020 - -26.5°
